Location: Charlottetown
(46.2330°N, 63.1330°W)
Time: 06:45:47
(UTC-03:00)

Daily predictions for brighter satellites

Satellite Brightness Start Highest point End
(mag) Time Altitude Azimuth Time Altitude Azimuth Time Altitude Azimuth
Cosmos 614 Rocket 4.2 21:10:47 10° NNW 21:15:48 53° ENE 21:20:44 10° SE
YAOGAN 6 4.1 21:14:23 10° ESE 21:17:03 21° ENE 21:19:46 10° NNE
Cosmos 1408 2.6 21:15:56 10° S 21:19:32 59° E 21:23:07 10° NNE
Abrixas 3.9 21:20:23 10° SSW 21:22:46 21° SE 21:25:09 10° E
ISS -3.1 21:20:57 10° WSW 21:24:12 74° NNW 21:27:28 10° ENE
Envisat 3.1 21:19:34 10° SSE 21:24:36 66° ENE 21:29:39 10° N
Cosmos 1862 3.4 21:25:02 10° S 21:29:06 89° W 21:33:13 10° N
Cosmos 2084 4.0 21:25:31 10° SW 21:29:17 56° NW 21:33:05 10° NNE
Meteor 1-27 Rocket 4.1 21:24:00 10° NNW 21:29:30 66° W 21:34:57 10° S
Cosmos 1238 Rocket 2.7 21:26:51 10° N 21:30:17 85° W 21:34:23 10° S
ERS-1 Rocket 3.2 21:25:54 10° S 21:30:56 78° WSW 21:36:00 10° NNW
Lacrosse 5 rocket 2.7 21:31:31 10° SSE 21:34:02 16° SE 21:36:29 10° E
MetOp-A 4.5 21:29:34 10° SE 21:34:44 51° ENE 21:39:55 10° N
Cosmos 1140 Rocket 3.7 21:29:46 10° NNW 21:34:55 73° WSW 21:40:03 10° SSE
Gbstr 26 Del rocket 3.6 21:30:30 10° WNW 21:36:10 67° NNE 21:40:41 10° ESE
Okean 2 Rocket 3.1 21:33:10 10° S 21:37:31 63° E 21:41:53 10° NNE
Cosmos 1420 Rocket 4.0 21:32:49 10° SSW 21:38:01 72° ESE 21:43:14 10° NNE
SPOT 5 3.2 21:33:45 10° SSE 21:39:01 64° ENE 21:44:19 10° N
Cosmos 1782 Rocket 3.6 21:35:07 10° S 21:39:34 81° E 21:44:05 10° N
Cosmos 1833 Rocket 2.9 21:36:33 10° NNW 21:42:09 62° ENE 21:47:16 12° SE
CZ-4B R/B 4.4 21:39:43 10° NE 21:43:49 26° E 21:47:28 12° SSE
SL-8 R/B 4.1 21:42:15 10° W 21:47:04 66° N 21:51:52 10° E
Cosmos 1844 Rocket 4.4 21:42:14 10° WSW 21:47:29 38° NW 21:52:45 10° NNE
APEX 3.7 21:43:19 10° SSW 21:47:30 79° ESE 21:53:05 10° NNE
Lacrosse 5 3.1 21:44:03 10° S 21:47:45 21° ESE 21:51:29 10° ENE
Cosmos 1825 2.9 21:45:20 10° SSW 21:49:05 58° W 21:52:53 10° N
Cosmos 1975 Rocket 3.4 21:46:52 10° NNW 21:51:10 67° W 21:55:28 10° S
Cosmos 2278 Rocket 2.8 21:49:05 10° SW 21:54:42 63° WNW 22:00:22 10° NNE
Cosmos 2218 Rocket 4.2 21:51:32 10° S 21:57:46 58° E 22:04:01 10° NNE
Nimbus 7 Rocket 4.4 21:53:47 10° NNE 21:59:46 79° ESE 22:05:46 10° SSW
Cosmos 1184 Rocket 4.2 21:57:51 10° SSW 22:01:02 41° WNW 22:04:16 10° N
Cosmos 1959 Rocket 4.5 21:57:34 10° S 22:03:35 64° E 22:09:37 10° NNE
Cosmos 1536 Rocket 3.8 21:59:44 10° N 22:04:10 56° ENE 22:07:25 17° SSE
Cosmos 1727 Rocket 4.1 22:01:00 10° N 22:07:06 60° ENE 22:12:08 16° SSE
BREEZE-M DEB (TANK) 4.0 21:53:50 10° WNW 22:07:13 55° SW 22:10:14 18° SSE
Cosmos 2082 Rocket 2.5 22:06:32 10° NNW 22:12:12 65° WSW 22:17:02 14° S
H-2A R/B 2.9 22:09:10 18° ESE 22:12:35 36° ENE 22:17:21 10° N
SL-08 RB Rocket 4.0 22:09:39 19° SE 22:12:47 52° ENE 22:17:19 10° N
Meteor 1-25 Rocket 4.5 22:07:52 11° S 22:13:23 53° E 22:19:01 10° NNE
AVUM R/B 3.6 22:10:04 10° NW 22:13:34 63° WSW 22:15:40 21° SSE
NOSS 8 (E) 4.4 22:13:17 10° SSW 22:16:42 66° SE 22:20:29 10° NE
USA 229 DEB 4.0 22:11:09 10° NW 22:18:10 65° WSW 22:23:49 17° SSE
USA 229 4.0 22:11:15 10° NW 22:18:16 66° WSW 22:23:54 17° SSE
Timation 1 Rocket 4.4 22:12:53 10° S 22:18:45 58° ESE 22:24:38 10° NE
PSLV R/B 4.0 22:21:35 17° SSW 22:23:34 43° W 22:26:25 10° NNW
Cosmos 1812 2.8 22:22:13 10° N 22:26:05 61° E 22:27:55 28° SSE
CZ-4 R/B 4.0 22:21:35 10° NNE 22:26:05 47° E 22:28:48 22° SSE
SL-8 Rocket 4.2 22:20:46 10° SSW 22:27:00 74° W 22:33:15 10° N
SPOT 1/Viking Rocket 3.6 22:24:22 18° SSE 22:28:22 84° WSW 22:33:38 10° NNW
Okean 1 3.5 22:25:04 10° N 22:29:06 56° ENE 22:30:57 29° SE
Genesis I 3.8 22:29:40 28° SSE 22:30:53 35° ESE 22:34:35 10° NE
H-2A R/B 3.8 22:27:54 10° SSW 22:31:33 27° W 22:35:10 10° NW
USA 245 3.6 22:29:57 22° S 22:32:22 69° W 22:37:04 10° NNW
Cosmos 2297 4.3 22:28:58 10° SW 22:34:36 60° WNW 22:40:19 10° NNE
Landsat 7 3.9 22:32:46 26° SE 22:35:20 62° ENE 22:40:03 10° N
NOAA 11 4.2 22:32:03 19° SSE 22:36:03 83° WSW 22:41:36 10° NNW
NOSS 3-1 (A) 4.2 22:29:02 10° NW 22:36:24 65° NE 22:42:03 22° ESE
Meteor 1-18 Rocket 4.5 22:30:38 10° NNW 22:36:34 77° W 22:41:07 18° S
BREEZE-M DEB (TANK) 2.6 22:38:28 10° WNW 22:40:31 43° N 22:44:16 10° E
Cosmos 2151 Rocket 4.2 22:40:05 10° SSW 22:44:32 59° WNW 22:49:03 10° N
Cosmos 1300 Rocket 3.6 22:43:16 30° SSE 22:45:22 62° E 22:49:47 10° NNE
Cosmos 1633 4.4 22:45:43 19° E 22:45:43 19° E 22:48:02 10° NE
YAOGAN 6 4.3 22:48:09 14° SSW 22:50:31 27° W 22:53:36 10° NW
Terra 1.9 22:48:59 33° SE 22:51:01 62° ENE 22:55:44 10° N
Meteor 1-13 Rocket 4.4 22:46:50 10° N 22:52:48 69° ENE 22:55:50 30° SSE
Cosmos 1331 Rocket 3.9 22:48:27 10° SSW 22:53:35 90° NNE 22:58:47 10° NNE
ARGOS 3.6 22:50:23 20° S 22:54:02 58° WSW 22:59:20 10° NNW
Okean 1 Rocket 3.0 22:54:17 34° S 22:56:08 70° E 23:00:35 10° NNE
ATLAS 2AS CENTAUR R/B 3.9 22:49:22 10° NW 22:57:07 44° NE 23:03:12 16° ESE
Abrixas 2.4 22:55:26 10° WSW 22:58:29 88° N 22:58:45 72° ENE
Cosmos 1503 Rocket 4.3 22:53:33 10° NNW 22:58:44 56° ENE 23:00:52 33° SE
Cosmos 2369 Rocket 2.8 22:58:30 32° SE 22:59:42 35° ESE 23:04:45 10° NE
ISS -1.5 22:58:00 10° WNW 23:00:58 31° N 23:03:56 10° ENE
Cosmos 1110 Rocket 4.3 22:59:00 10° SSW 23:04:12 66° WNW 23:09:24 10° NNE
NOSS 3-1 (C) 4.0 22:56:57 10° NW 23:04:27 81° SW 23:09:03 29° SSE
Meteor 1-11 Rocket 3.8 23:08:27 33° SSE 23:11:00 64° E 23:16:40 10° NNE
Cosmos 1315 Rocket 3.9 23:11:30 28° E 23:11:30 28° E 23:14:31 10° NNE
SAR-Lupe-2 3.6 23:12:00 57° E 23:12:16 59° ENE 23:15:48 10° N
USA 234 3.9 23:06:47 10° ENE 23:12:27 31° SE 23:12:32 31° SE
Lacrosse 5 rocket 1.2 23:09:00 10° WSW 23:12:52 73° NW 23:16:37 10° NE
Spot 4 3.8 23:14:31 43° SSE 23:16:07 81° ENE 23:20:59 10° NNW
Cosmos 1544 Rocket 4.5 23:16:32 31° E 23:16:32 31° E 23:20:20 10° NNE
Okean 1-7 Rocket 3.9 23:13:17 10° NNW 23:17:44 62° W 23:19:15 38° SSW
Cosmos 1943 Rocket 3.5 23:21:07 22° E 23:21:07 22° E 23:24:56 10° NE
Cosmos 1535 Rocket 4.5 23:17:54 33° S 23:20:58 73° E 23:27:21 10° NNE
Gbstr 26 Del rocket 3.9 23:18:21 10° WNW 23:22:53 35° SW 23:23:20 34° SSW
DMSP B5D2-2 4.0 23:18:18 10° NNE 23:23:35 85° ESE 23:25:49 36° SSW
Meteor 1-23 Rocket 4.2 23:21:10 10° N 23:26:43 66° ENE 23:28:26 44° SE
SL-8 R/B 3.6 23:24:57 10° WNW 23:29:48 81° SSW 23:30:53 53° SE
Lacrosse 5 1.9 23:25:05 10° SW 23:30:12 83° NW 23:35:20 10° NE
CARTOSAT-1 4.1 23:29:44 38° SW 23:30:54 50° W 23:35:08 10° NNW
Cosmos 2084 Rocket 3.1 23:27:35 10° NW 23:31:30 81° SW 23:31:43 77° S
Meteor 1-19 Rocket 4.3 23:27:51 10° NNW 23:33:43 77° W 23:35:54 40° S
Cosmos 1354 Rocket 4.0 23:29:10 10° NNW 23:34:26 73° WSW 23:35:56 47° S
Okean 2 3.6 23:31:51 10° N 23:35:59 55° ENE 23:36:11 54° E
Cosmos 1400 Rocket 2.9 23:39:00 61° SW 23:39:37 76° W 23:43:48 10° N
IGS 5A 4.2 23:39:54 38° SW 23:40:43 44° W 23:44:44 10° NNW
Meteor 1-5 Rocket 4.3 23:44:19 47° ESE 23:45:03 51° E 23:50:11 10° NNE
Cosmos 1536 2.7 23:45:38 76° WSW 23:45:51 79° W 23:49:51 10° N
Cosmos 1992 Rocket 4.2 23:45:43 49° ESE 23:46:01 50° ESE 23:51:03 10° NNE
Cosmos 1356 4.4 23:49:29 41° W 23:49:46 42° WNW 23:53:10 10° N
H-2A R/B 3.3 23:49:49 25° SW 23:51:59 34° W 23:56:47 10° NNW
